Location: Unspecified
(54.1780°N, 0.0000°E)
Time: 20:26:33
(UTC+00:00)

Altair - Pass Details

Date: 23 June 2019
Orbit: 1501 x 1683 km, 47.2° (Epoch: 17 July)

Event Time Altitude Azimuth Distance (km) Brightness Sun altitude
Rises 02:41:54 0° 285° (WNW) 4,865 9.9 -5.1°
Reaches altitude 10° 02:46:01 10° 271° (W) 3,901 9.3 -4.8°
Maximum altitude 02:52:45 21° 227° (SW) 3,140 8.6 -4.2°
Drops below altitude 10° 02:59:35 10° 184° (S) 3,938 9.2 -3.5°
Sets 03:03:48 0° 170° (S) 4,923 9.8 -3.1°
